Showing default

INMARSAT GX5, 44801

Orbit data source: Space-Track

INMARSAT GX5, 44801 is a payload satellite owned by INMARSAT-Ltd (UK) in GEO that was launched on Tue, 26 Nov 2019 UTC via an ARIANE 5ECA launch vehicle from the French Guiana (FRGUI). Payload-class satellites include a variety of spacecraft equipped with specific instruments for various scientific and technological missions. These include communications satellites like Starlink; space stations such as the ISS; scientific satellites like the Hubble; Earth observation satellites from companies like Planet Labs, Umbra, and HawkEye 360; GPS; miniature CubeSats for education and research; and military/defense satellites.

Not visible in the next 10 days
Identifier
44801, 2019-080B
Orbit
GEO
Last TLE update
11 hours ago
Origin
Manufacturer
Thales Alenia
Mission
Operational Commercial Communications
Bus & Motor
SPACEBUS 4000B2, S400
Mass
~4,007 kg wet, ~2,200 kg dry
Launch date (UTC)
2019-11-26 (6 years ago)
Launch vehicle
ARIANE 5ECA
Launch site
French Guiana (FRGUI)
Object type
Payload
Rocket body
Debris
Shape & HBR
Box + 2 Pan, Unknown HBR
Radar Cross Section
39.423 m², Large (>1 m²)

Expand to show TLE details & history

TLE from 11 hours ago
0 INMARSAT GX5
1 44801U 19080B   25183.95684671  .00000084  00000-0  00000-0 0  9992
2 44801   0.0348   8.3946 0001669  97.7958 170.5133  1.00275160  3286
Epoch: 2025-07-02T22:57Z
TLE epoch observation values (Epoch: 2025-07-02T22:57:51.555Z)
Latitude
-0.05339°
Longitude
11.01984°
Altitude
35,792.115 km
Speed
3.074 km/s
True Right ascension
18h 26m 51s
True Declination
0° 03' 12"
Sunlit
Object was in daylight at epoch
Visualization orbit readout
Latitude
0.05274°
Longitude
-178.13112°
Altitude
35,778.392 km
Speed
3.075 km/s
Apparent Right ascension
06h 12m 55s
Apparent Declination
-5° 10' 25"
Sunlit
Object is in daylight
Visualization observer readout
Local Sidereal Time
22:05:43
Azimuth
72.455° E
Elevation
-27.413°
Doppler factor
1
Orbital elements
Apogee altitude
35,793.757 km
Perigee altitude
35,779.682 km
Semi-major axis
42,164.856 km
Eccentricity
0.00017
Inclination
0.0348°
RAAN
8.3946°
Arg. of periapsis
97.7958°
True anomaly
Unknown
Mean anomaly
170.5133°
Eccentric anomaly
Unknown
Mean motion
0.25068 °/min
Orbital period
1,436.1 mins
BSTAR
0
Loading historical data...
44801 neighbors
Loading maneuver chart data...
Loading SW <> Apogee altitude chart data...
Loading historical data...
Loading historical data...
Loading historical data...
Loading historical data...
Loading historical data...
Loading historical data...
Loading historical data...
Other satellites on launch #80 in the year 2019 (2019-11-26 UTC)

INMARSAT GX5 Visibility

Observer location: undefined°, undefined°

INMARSAT GX5 is likely not visible in the next few days
Span
Click to sort rows by Start time (UTC) header in descending order
Start Az.
Max El. time (UTC)
Max El. Az.
Max El.
End time (UTC)
End Az.
|